Zurück zum Katalog

OPS 4682 DEB

AktivPO
NORAD 59151·DEBRIS·🇺🇸 United States

Gestartet Apr 3, 1965 von Vandenberg Space Force Base

Loading…

Nächste Überflüge (nächste 24 Stunden)

TLE

AlterndSource: Space-Track

Epoche: Sep 10, 2026, 13:20 UTC

1 59151U 65027HT  26253.55599681 -.00000188  00000-0 -66390-3 0  9993
2 59151  90.2405   3.0615 0036518 198.7771 161.2005 12.98139548474832

Verfolge OPS 4682 DEB in Echtzeit mit AllMySat

Download on the App Store